CYGNUS NG-13 (45175 NORAD) Tracking and Keplerian Element Data

This shows tracking and keplerian element data for the satellite.

Feedback or suggestion? Click here.




ElementValue
Catalog45175
NameCYGNUS NG-13
Epoch Orbit1599
Epoch Day150.22790637
Epoch Year2020
RAAN84.5771
Inclination51.6352
Eccentricity0.0003513
Argument of Perigee212.6112
Mean Anonmoly336.1404
Mean Motion15.70365447
Decay Rate0.00161088
L11 45175U 20011A 20150.22790637 .00161088 00000-0 12714-2 0 9991
L22 45175 51.6352 84.5771 0003513 212.6112 336.1404 15.70365447 15992

Live tracking and technical data element details for CYGNUS NG-13 (NORAD 45175). CYGNUS NG-13 can be tracked NOW for your location showing map with azimuth and elevation plus other details from your city location.

Track the satellite on the map from your city or location and see movement details for azimuth, elevation, latitude, longitude, range, height, and movement on the map or in text.







IsCatalogInMostPopularTable: catalog: 45175, numindb: 44
Update: records affected: 1



GetName: 45175 CYGNUS NG-13

Hit Count: updated at: Fri, 10 Jul 2020 04:03:00 GMT